Regional Weather Roundup
Issued by NWS Grand Forks, ND

Home | Current Version | Previous Version | Text Only | Print | Product List | Glossary Off
Versions: 1 2 3 4 5 6 7 8 9 10 11 12 13 14 15 16 17 18 19 20 21 22 23 24 25 26 27 28 29 30 31 32 33 34 35 36 37 38 39 40 41 42 43 44 45 46 47 48 49 50

000
ASUS43 KFGF 290710
RWRFGF
PRAIRIE TO PINES  WEATHER ROUNDUP
NATIONAL WEATHER SERVICE EASTERN NORTH DAKOTA/GRAND FORKS ND
200 AM CDT FRI MAY 29 2015

 **SATELLITE DATA USED TO AUGMENT SKY COVER AT AUTOMATED STATIONS**
 *****  WEATHER ACROSS EASTERN NORTH DAKOTA  *****

CITY           SKY/WX    TMP DP  RH WIND       PRES   REMARKS
GRAND FORKS    CLOUDY    59  56  89 N18G24    29.90R
GRAND FRKS AFB CLOUDY    57  54  88 N21G31    29.91R
GRAND FRKS NWS   N/A     57 N/A N/A N7          N/A
DEVILS LAKE    CLOUDY    54  45  71 N25       29.99R
FARGO          LGT RAIN  63  61  93 S5        29.85R
WAHPETON ARPT  CLOUDY    61  57  88 SW6       29.87R
$$

 ***** WEATHER ACROSS CENTRAL AND WESTERN NORTH DAKOTA  *****

CITY           SKY/WX    TMP DP  RH WIND       PRES   REMARKS
BISMARCK       CLOUDY    56  50  80 N20G28    29.99R
MINOT          CLOUDY    49  41  74 N22       30.10R
JAMESTOWN      CLOUDY    63  58  83 N15G25    29.89R
MINOT AFB      CLOUDY    50  49  99 N21       30.10R
GARRISON         N/A     51  44  77 N22G31    30.05R
WILLISTON      CLOUDY    49  37  63 N12       30.18R
DICKINSON      CLOUDY    52  47  83 N17G26    30.07R
HETTINGER      CLOUDY    55  51  86 N16G24    30.04R
$$

 *****  OTHER AIRPORT OBSERVATIONS IN OUR AREA  *****

CITY           SKY/WX    TMP DP  RH WIND       PRES   REMARKS
WALHALLA         N/A     50  50 100 MISG      30.02R
GRAFTON AIRPOR CLOUDY    52  52 100 N23G33    29.95R
VALLEY CITY AR CLOUDY    63  63 100 N18G24    29.88R FOG
CANDO          CLOUDY    48  46  93 N17G30    30.02R
CAVALIER APRT  NOT AVBL
GWINNER        NOT AVBL
SHEYENNE NWR     N/A     61  60  98 CALM      29.95S
ROLLA          MIX PCPN  45  45 100 N24G32    30.06R
 ***** THE ABOVE OBSERVATIONS ARE NON NWS ARE NOT QUALITY
       CONTROLLED AND MAY MIS-REPORT RAIN FOR SNOW...
$$

  *****  WEATHER ACROSS NORTHERN MINNESOTA  *****

CITY           SKY/WX    TMP DP  RH WIND       PRES   REMARKS
FLAG ISLAND    CLOUDY    59  57  94 NW17      29.84R
WARROAD        CLOUDY    57  55  94 NW12G21   29.87R
ROSEAU         CLOUDY    57  54  88 N17G25    29.87R
HALLOCK        CLOUDY    54  52  94 N29       29.92R
THF RVR FALLS  CLOUDY    63  59  88 N13       29.86S
BAUDETTE       CLOUDY    60  59  96 W7        29.83F
WASKISH        LGT RAIN  61  59  94 CALM      29.84F
CROOKSTON      CLOUDY    61  59  94 N20       29.87S FOG
$$
  *****  WEATHER ACROSS CENTRAL AND WEST MINNESOTA  *****

CITY           SKY/WX    TMP DP  RH WIND       PRES   REMARKS
FOSSTON        CLOUDY    59  57  94 CALM      29.87S
BEMIDJI        LGT RAIN  59  58  97 W3        29.86F
PARK RAPIDS    LGT RAIN  61  58  90 S6        29.85F
ELBOW LAKE     LGT RAIN  60  59  99 SE8       29.84F
WADENA         DRIZZLE   61  59  94 CALM      29.85F
DETROIT LAKES  CLOUDY    61  59  94 NW9       29.88R
MOORHEAD       RAIN      61  61 100 S3        29.86F
FERGUS FALLS   DRIZZLE   61  61 100 S6        29.85S
MORRIS MN      CLOUDY    61  61 100 E10       29.84F
STAPLES        CLOUDY    59  57  94 CALM      29.86F
$$
  *****  WEATHER ELSEWHERE ACROSS MINNESOTA  *****

CITY           SKY/WX    TMP DP  RH WIND       PRES   REMARKS
DULUTH         CLOUDY    48  44  86 SE3       29.88F
INTRNTL FALLS  CLOUDY    59  57  93 VRB3      29.84S
ELY            NOT AVBL
CLOQUET        CLOUDY    45  43  93 CALM      29.89F FOG
WHEATON        LGT RAIN  59  57  94 SE8       29.88R
BRAINERD       CLOUDY    64  57  78 NW8       29.87F
HIBBING        CLOUDY    54  47  77 SE3       29.87F
ALEXANDRIA     CLOUDY    60  57  89 SE3       29.87F
SAINT CLOUD    MOCLDY    65  59  81 SW7       29.88R
MINNEAPOLIS    LGT RAIN  69  61  75 S12       29.91S
$$

  *****  WEATHER ACROSS SOUTH DAKOTA  *****

CITY           SKY/WX    TMP DP  RH WIND       PRES   REMARKS
SIOUX FALLS    MOCLDY    66  63  90 S10       29.85F
BROOKINGS      MOCLDY    63  57  82 S5        29.86F
WATERTOWN      RAIN      61  58  90 E13G23    29.85F
HURON            N/A    N/A N/A N/A MISG      29.83S
SISSETON         N/A     61  60  97 SE7       29.84F
ABERDEEN       CLOUDY    62  60  93 N8        29.86R
MITCHELL       LGT RAIN  65  60  84 SW7       29.84F
PIERRE         CLOUDY    60  57  89 W9        29.86F
MOBRIDGE       CLOUDY    64  61  90 N12       29.88R
RAPID CITY     CLOUDY    58  50  75 NW23G30   29.99F
$$

  *****  SOME WEATHER IN NEARBY STATES *****

CITY           SKY/WX    TMP DP  RH WIND       PRES   REMARKS
GLASGOW MT     CLEAR     43  38  82 N8        30.27R
GREAT FALLS MT CLOUDY    45  44  97 N5        30.32F FOG
CHEYENNE WY    CLOUDY    50  40  68 N13G18    30.17F
SCOTTSBLUFF NE CLOUDY    54  52  93 W7        30.06F
OMAHA NE       CLOUDY    67  63  87 S14       29.92S
DES MOINES IA  PTCLDY    65  62  90 S7        29.95F
DAVENPORT IA   CLOUDY    67  61  81 SE5       30.01F
CHICAGO IL     MOCLDY    64  57  78 S9        30.04F
EAU CLAIRE WI  LGT RAIN  65  59  81 S7        29.97F
LA CROSSE WI   LGT RAIN  67  60  78 SE5       29.97S
$$

  *****  SOME NATIONAL WEATHER *****

CITY           SKY/WX    TMP DP  RH WIND       PRES   REMARKS
LA GUARDIA NY  CLEAR     68  53  58 N7        30.25S
RALEIGH NC     PTCLDY    69  66  90 S3        30.21F
ATLANTA GA     PTCLDY    68  65  90 E7        30.15F
NEW ORLEANS LA PTCLDY    75  70  84 SE7       30.04S
OKLAHOMA CITY  CLOUDY    66  60  81 NW8       29.93R
ALBUQUERQUE NM CLEAR     67  32  27 N8        30.09R
SALT LAKE CITY PTCLDY    56  45  66 S5        30.15S
LOS ANGELES CA PTCLDY    58  56  93 SW6       29.96F
BOISE ID       CLEAR     61  46  57 E5        30.05F
SEATTLE WA     PTCLDY    63  54  72 W6        30.00S
$$

*** WEATHER ACROSS MANITOBA...SASKATCHEWAN AND ONTARIO ***
                ***ONTARIO***

CITY           SKY/WX    TMP DP  RH WIND       PRES   REMARKS
GERALDTON      CLOUDY    52  50  93 VRB2      29.91S
THUNDER BAY    CLOUDY    46  46 100 N2        29.91F FOG
SIOUX LOOKOUT  FOG       55  55 100 S3        29.83R VSB 3/4
TORONTO        PTCLDY    61  52  72 SE3       30.24F
BIG TROUT LK   RAIN      39  37  93 E12G22    30.00F
PICKLE LAKE    NOT AVBL
DRYDEN         FOG       57  55  94 VRB2      29.82F VSB 3/8
KENORA         CLOUDY    57  55  94 NW12G18   29.85S
$$
                *** MANITOBA***

CITY           SKY/WX    TMP DP  RH WIND       PRES   REMARKS
BRANDON        CLOUDY    48  39  71 N18       30.12R
DAUPHIN        LGT RAIN  45  41  87 N14G20    30.18R
ISLAND LAKE    LGT RAIN  37  36  93 N15G23    29.98R FOG
PILOT MOUND      N/A     46  43  87 N22G30      N/A
THE PAS        PTCLDY    36  27  69 N17G23    30.28R
THOMPSON       LGT SNOW  28  27  93 NE12      30.27S WCI  18
WINNIPEG       NOT AVBL
LYNN LAKE      FLURRIES  28  27  93 N8        30.36R WCI  20
CHURCHILL      FLURRIES  27  23  86 NE8       30.40S WCI  18
GILLAM         LGT SNOW  27  25  93 NE15G26   30.25S VSB 5/8 WCI  15
$$
                ***SASKATCHEWAN***

CITY           SKY/WX    TMP DP  RH WIND       PRES   REMARKS
ESTEVAN        CLOUDY    45  36  70 N15       30.20R
KINDERSLEY     PTCLDY    37  30  75 NE8       30.32S
LLOYDMINSTER   CLEAR     36  28  75 E6        30.35S
PRINCE ALBERT  MOCLDY    37  28  70 N6        30.36R
REGINA         NOT AVBL
YORKTON        CLOUDY    41  36  81 N15G21    30.23R
N. BATTLEFORD  CLEAR     34  30  86 N7        30.38R
LA RONGE       CLEAR     34  25  69 E7        30.39R
SASKATOON      CLEAR     34  28  80 NE9       30.35S
SWIFT CURRENT  CLEAR     36  28  75 E7        30.30R
$$
NOTE: THESE ARE AUTOMATED STATIONS WITH LIMITED QUALITY CONTROL
      "FAIR" INDICATES FEW OR NO CLOUDS BELOW 12,000 FEET WITH NO
      SIGNIFICANT WEATHER AND/OR OBSTRUCTIONS TO VISIBILITY.
      SKY/WX - SKY CONDITION AND SIGNIFICANT WEATHER.
      TMP - AIR TEMPERATURE.    DP   - DEWPOINT TEMPERATURE.
      RH  - RELATIVE HUMIDITY.  PRES - PRESSURE.
      HX  - HEAT INDEX.         WCI  - WIND CHILL INDEX.
$



USA.gov is the U.S. government's official web portal to all federal, state and local government web resources and services.